This is the latest recevied weather packets stored in our database for station/object WA1OUI. If no packets are shown the sender has not sent any weather packets the latest 10 day(s).
| Time | Temp. | Humidity | Pressure | Rain* | Wind** | Luminosity | Snow |
|---|---|---|---|---|---|---|---|
| 1777659109 | 16.67° C | 33% | 1008.7 hPa | 0 mm | - | 110 W/m² | - |
| 1777658807 | 17.22° C | 35% | 1008.7 hPa | 0 mm | - | 750 W/m² | - |
| 1777658503 | 17.22° C | 32% | 1008.8 hPa | 0 mm | - | 745 W/m² | - |
| 1777658200 | 17.22° C | 30% | 1008.7 hPa | 0 mm | - | 774 W/m² | - |
| 1777656989 | 16.67° C | 33% | 1008.9 hPa | 0 mm | - | 807 W/m² | - |
| 1777656685 | 16.67° C | 32% | 1008.8 hPa | 0 mm | - | 879 W/m² | - |
| 1777656381 | 16.11° C | 31% | 1008.7 hPa | 0 mm | - | 834 W/m² | - |
| 1777656076 | 16.11° C | 33% | 1008.9 hPa | 0 mm | - | 855 W/m² | - |
| 1777655773 | 16.11° C | 35% | 1009 hPa | 0 mm | - | 816 W/m² | - |
| 1777655470 | 16.67° C | 31% | 1008.9 hPa | 0 mm | - | 91 W/m² | - |
| 1777655167 | 16.67° C | 32% | 1008.9 hPa | 0 mm | - | 900 W/m² | - |
| 1777654561 | 16.67° C | 32% | 1009.1 hPa | 0 mm | - | 833 W/m² | - |
| 1777654258 | 16.67° C | 35% | 1009.1 hPa | 0 mm | - | 830 W/m² | - |
| 1777653956 | 16.11° C | 35% | 1009 hPa | 0 mm | - | 818 W/m² | - |
| 1777653652 | 16.11° C | 32% | 1009.1 hPa | 0 mm | - | 819 W/m² | - |
| 1777653349 | 16.11° C | 33% | 1009.1 hPa | 0 mm | - | 819 W/m² | - |
| 1777653046 | 16.11° C | 36% | 1009 hPa | 0 mm | - | 817 W/m² | - |
| 1777652439 | 15.56° C | 36% | 1009.2 hPa | 0 mm | - | 826 W/m² | - |
| 1777652137 | 15.56° C | 37% | 1009.1 hPa | 0 mm | - | 857 W/m² | - |
| 1777651833 | 15.56° C | 33% | 1009.2 hPa | 0 mm | - | 818 W/m² | - |
| 1777651530 | 15° C | 41% | 1009.2 hPa | 0 mm | - | 811 W/m² | - |
| 1777651227 | 14.44° C | 39% | 1009.5 hPa | 0 mm | - | 824 W/m² | - |
| 1777650923 | 13.89° C | 38% | 1009.5 hPa | 0 mm | - | 130 W/m² | - |
| 1777650621 | 13.89° C | 38% | 1009.5 hPa | 0 mm | - | 465 W/m² | - |
| 1777650015 | 14.44° C | 40% | 1009.5 hPa | 0 mm | - | 840 W/m² | - |
* Rain latest hour (hover to see other rain measurements)
** Current wind speed in m/s (hover to see current wind gust speed)